New Haven, CT

8:47 AM EDT on July 22, 2017 (GMT -0400)
Tweed-New Haven

Weather History for KHVN - August, 2014

Change the Weather History Date:

Saturday, August 30, 2014

  Actual Average Record
Temperature  
Mean Temperature 72 °F -  
Max Temperature 79 °F 76 °F 93 °F (1977)
Min Temperature 66 °F 60 °F 48 °F (1986)
Cooling Degree Days 8    
Growing Degree Days 22 (Base 50)    
Moisture  
Dew Point 60 °F    
Average Humidity 67    
Maximum Humidity 76    
Minimum Humidity 56    
Precipitation  
Precipitation 0.00 in - - ()
Sea Level Pressure  
Sea Level Pressure 30.24 in    
Wind  
Wind Speed 8 mph (South)    
Max Wind Speed 13 mph    
Max Gust Speed -    
Visibility 10 miles    
Events      
Averages and records for this station are not official NWS values.
T = Trace of Precipitation, MM = Missing Value Source: NWS Daily Summary

Daily Weather History Graph

Daily Weather History Graph

Search for Another Location

Airport or City:

Trip Planner

Search our weather history database for the weather conditions in past years. The results will help you decide how hot, cold, wet, or windy it might be!

Date:

Astronomy

Aug. 30, 2014 Rise Set
Actual Time 6:15 AM EDT 7:27 PM EDT
Civil Twilight 5:47 AM EDT 7:56 PM EDT
Nautical Twilight 5:13 AM EDT 8:30 PM EDT
Astronomical Twilight 4:37 AM EDT 9:05 PM EDT
Moon 11:04 AM EDT (8/30) 9:56 PM EDT (8/30)
Length of Visible Light 14h 08m
Length of Day
13h 11m
Waxing Crescent, 23% of the Moon is Illuminated
Aug 30
Waxing Crescent
Sep 2
First Quarter
Sep 8
Full
Sep 15
Last Quarter
Sep 24
New

Hourly Weather History & Observations

Time (EDT) Temp. Dew Point Humidity Pressure Visibility Wind Dir Wind Speed Gust Speed Precip Events Conditions
12:53 AM 66.0 °F 55.9 °F 70% 30.28 in 10.0 mi South 6.9 mph - N/A   Clear
1:53 AM 66.0 °F 55.9 °F 70% 30.27 in 10.0 mi South 6.9 mph - N/A   Clear
2:53 AM 66.9 °F 57.9 °F 73% 30.27 in 10.0 mi South 8.1 mph - N/A   Partly Cloudy
3:40 AM 66.9 °F 57.9 °F 73% 30.27 in 10.0 mi SSE 5.8 mph - N/A   Mostly Cloudy
3:53 AM 66.2 °F 57.2 °F 73% 30.27 in 10.0 mi South 4.6 mph - N/A   Mostly Cloudy
4:22 AM 66.9 °F 59.0 °F 76% 30.27 in 10.0 mi South 8.1 mph - N/A   Scattered Clouds
4:53 AM 66.9 °F 59.0 °F 76% 30.27 in 10.0 mi South 6.9 mph - N/A   Scattered Clouds
5:53 AM 66.0 °F 57.9 °F 75% 30.29 in 10.0 mi South 6.9 mph - N/A   Partly Cloudy
6:53 AM 68.0 °F 57.9 °F 70% 30.29 in 10.0 mi SSE 6.9 mph - N/A   Partly Cloudy
7:53 AM 70.0 °F 59.0 °F 68% 30.28 in 10.0 mi SE 9.2 mph - N/A   Scattered Clouds
8:53 AM 72.0 °F 59.0 °F 64% 30.29 in 10.0 mi SSE 11.5 mph - N/A   Scattered Clouds
9:53 AM 73.0 °F 59.0 °F 61% 30.28 in 10.0 mi South 11.5 mph - N/A   Scattered Clouds
10:53 AM 75.0 °F 60.1 °F 60% 30.28 in 10.0 mi SSE 10.4 mph - N/A   Scattered Clouds
11:53 AM 75.9 °F 60.1 °F 58% 30.26 in 10.0 mi SSE 11.5 mph - N/A   Mostly Cloudy
12:53 PM 77.0 °F 60.1 °F 56% 30.25 in 10.0 mi SSE 8.1 mph - N/A   Mostly Cloudy
1:53 PM 77.0 °F 61.0 °F 58% 30.24 in 10.0 mi South 10.4 mph - N/A   Mostly Cloudy
2:53 PM 77.0 °F 60.1 °F 56% 30.23 in 10.0 mi South 11.5 mph - N/A   Mostly Cloudy
3:53 PM 79.0 °F 62.1 °F 56% 30.20 in 10.0 mi South 11.5 mph - N/A   Mostly Cloudy
4:53 PM 75.9 °F 62.1 °F 62% 30.19 in 10.0 mi South 12.7 mph - N/A   Mostly Cloudy
5:53 PM 75.0 °F 63.0 °F 66% 30.18 in 10.0 mi South 11.5 mph - N/A   Overcast
6:53 PM 73.9 °F 62.1 °F 66% 30.17 in 10.0 mi South 10.4 mph - N/A   Overcast
7:53 PM 73.9 °F 63.0 °F 68% 30.17 in 10.0 mi South 8.1 mph - N/A   Overcast
8:53 PM 73.0 °F 64.0 °F 73% 30.18 in 10.0 mi South 8.1 mph - N/A   Mostly Cloudy
9:53 PM 73.9 °F 64.0 °F 71% 30.18 in 10.0 mi SSW 9.2 mph - N/A   Overcast
10:53 PM 73.4 °F 64.4 °F 73% 30.17 in 10.0 mi SSW 8.1 mph - N/A   Overcast
11:53 PM 73.9 °F 66.0 °F 76% 30.16 in 10.0 mi SSW 6.9 mph - N/A   Overcast